Time,TemperatureF,DewpointF,PressureIn,WindDirection,WindDirectionDegrees,WindSpeedMPH,WindSpeedGustMPH,Humidity,HourlyPrecipIn,Conditions,Clouds,dailyrainin,SoftwareType,DateUTC
2013-02-11 00:02:00,26.0,25.0,-100.00,ESE,120,6.0,12.0,96,0.01,,,0.12,,2013-02-11 00:02:00,
2013-02-11 00:11:00,26.0,25.0,-100.00,SE,125,7.0,14.0,96,0.01,,,0.12,,2013-02-11 00:11:00,
2013-02-11 00:22:00,26.0,25.0,-100.00,ESE,110,7.0,14.0,96,0.00,,,0.12,,2013-02-11 00:22:00,
2013-02-11 00:32:00,26.0,25.0,-100.00,ESE,110,6.0,12.0,96,0.00,,,0.12,,2013-02-11 00:32:00,
2013-02-11 00:42:00,26.0,25.0,-100.00,ESE,105,7.0,12.0,96,0.00,,,0.12,,2013-02-11 00:42:00,
2013-02-11 00:51:00,26.0,25.0,-100.00,East,100,7.0,14.0,96,0.00,,,0.12,,2013-02-11 00:51:00,
2013-02-11 01:01:00,26.0,25.0,-100.00,ESE,105,9.0,15.0,96,0.00,,,0.12,,2013-02-11 01:01:00,
2013-02-11 01:11:00,26.0,25.0,-100.00,East,100,7.0,15.0,96,0.00,,,0.12,,2013-02-11 01:11:00,
2013-02-11 01:21:00,26.0,25.0,-100.00,East,85,7.0,12.0,96,0.00,,,0.12,,2013-02-11 01:21:00,
2013-02-11 01:32:00,26.0,25.0,-100.00,East,90,7.0,13.0,96,0.00,,,0.12,,2013-02-11 01:32:00,
2013-02-11 01:41:00,26.0,25.0,-100.00,East,80,6.0,14.0,95,0.00,,,0.12,,2013-02-11 01:41:00,
2013-02-11 01:52:00,26.0,25.0,-100.00,East,85,6.0,14.0,95,0.00,,,0.12,,2013-02-11 01:52:00,
2013-02-11 02:01:00,26.0,25.0,-100.00,East,95,6.0,12.0,95,0.00,,,0.12,,2013-02-11 02:01:00,
2013-02-11 02:11:00,26.0,25.0,-100.00,East,80,7.0,12.0,95,0.00,,,0.12,,2013-02-11 02:11:00,
2013-02-11 02:21:00,26.0,25.0,-100.00,East,80,6.0,11.0,95,0.00,,,0.12,,2013-02-11 02:21:00,
2013-02-11 02:31:00,26.0,25.0,-100.00,East,90,9.0,14.0,95,0.00,,,0.12,,2013-02-11 02:31:00,
2013-02-11 02:42:00,26.0,25.0,-100.00,East,80,9.0,14.0,94,0.00,,,0.12,,2013-02-11 02:42:00,
2013-02-11 02:52:00,26.0,25.0,-100.00,East,85,9.0,14.0,94,0.00,,,0.12,,2013-02-11 02:52:00,
2013-02-11 03:02:00,26.0,25.0,-100.00,East,85,7.0,12.0,94,0.00,,,0.12,,2013-02-11 03:02:00,
2013-02-11 03:11:00,26.0,25.0,-100.00,East,80,7.0,13.0,93,0.00,,,0.12,,2013-02-11 03:11:00,
2013-02-11 03:21:00,26.0,25.0,-100.00,ENE,75,6.0,12.0,93,0.00,,,0.12,,2013-02-11 03:21:00,
2013-02-11 03:31:00,26.0,25.0,-100.00,East,85,6.0,12.0,93,0.00,,,0.12,,2013-02-11 03:31:00,
2013-02-11 03:42:00,26.0,25.0,-100.00,ENE,75,7.0,12.0,93,0.00,,,0.12,,2013-02-11 03:42:00,
2013-02-11 03:52:00,26.0,25.0,-100.00,East,80,9.0,12.0,93,0.00,,,0.12,,2013-02-11 03:52:00,
2013-02-11 04:01:00,26.0,25.0,-100.00,ENE,75,11.0,16.0,92,0.00,,,0.12,,2013-02-11 04:01:00,
2013-02-11 04:11:00,27.0,25.0,-100.00,East,80,9.0,14.0,92,0.00,,,0.12,,2013-02-11 04:11:00,
2013-02-11 04:21:00,27.0,25.0,-100.00,East,80,9.0,14.0,92,0.00,,,0.12,,2013-02-11 04:21:00,
2013-02-11 04:31:00,27.0,25.0,-100.00,ENE,75,7.0,13.0,92,0.00,,,0.12,,2013-02-11 04:31:00,
2013-02-11 04:42:00,27.0,25.0,-100.00,ENE,75,6.0,12.0,92,0.00,,,0.12,,2013-02-11 04:42:00,
2013-02-11 04:51:00,27.0,25.0,-100.00,East,85,6.0,11.0,92,0.00,,,0.12,,2013-02-11 04:51:00,
2013-02-11 05:01:00,27.0,25.0,-100.00,ENE,65,8.0,12.0,92,0.00,,,0.12,,2013-02-11 05:01:00,
2013-02-11 05:12:00,27.0,25.0,-100.00,ENE,70,6.0,12.0,92,0.00,,,0.12,,2013-02-11 05:12:00,
2013-02-11 05:22:00,27.0,25.0,-100.00,ENE,75,6.0,12.0,92,0.00,,,0.12,,2013-02-11 05:22:00,
2013-02-11 05:31:00,27.0,25.0,-100.00,ENE,65,4.0,12.0,93,0.00,,,0.12,,2013-02-11 05:31:00,
2013-02-11 05:42:00,27.0,25.0,-100.00,ENE,75,9.0,12.0,93,0.00,,,0.12,,2013-02-11 05:42:00,
2013-02-11 05:52:00,27.0,25.0,-100.00,ENE,60,7.0,11.0,93,0.00,,,0.12,,2013-02-11 05:52:00,
2013-02-11 06:02:00,27.0,25.0,-100.00,ENE,70,6.0,11.0,93,0.00,,,0.12,,2013-02-11 06:02:00,
2013-02-11 06:11:00,27.0,25.0,-100.00,NE,55,7.0,13.0,93,0.00,,,0.12,,2013-02-11 06:11:00,
2013-02-11 06:21:00,27.0,25.0,-100.00,ENE,60,7.0,13.0,93,0.00,,,0.12,,2013-02-11 06:21:00,
2013-02-11 06:32:00,27.0,25.0,-100.00,ENE,65,8.0,14.0,93,0.00,,,0.12,,2013-02-11 06:32:00,
2013-02-11 06:42:00,27.0,25.0,-100.00,NE,55,9.0,16.0,92,0.00,,,0.12,,2013-02-11 06:42:00,
2013-02-11 06:51:00,27.0,25.0,-100.00,ENE,75,8.0,15.0,92,0.00,,,0.12,,2013-02-11 06:51:00,
2013-02-11 07:01:00,27.0,25.0,-100.00,ENE,60,9.0,16.0,91,0.00,,,0.12,,2013-02-11 07:01:00,
2013-02-11 07:11:00,27.0,25.0,-100.00,ENE,70,9.0,13.0,91,0.00,,,0.12,,2013-02-11 07:11:00,
2013-02-11 07:21:00,27.0,25.0,-100.00,NE,55,7.0,17.0,90,0.00,,,0.12,,2013-02-11 07:21:00,
2013-02-11 07:32:00,27.0,25.0,-100.00,NE,55,10.0,17.0,90,0.00,,,0.12,,2013-02-11 07:32:00,
2013-02-11 07:41:00,27.0,25.0,-100.00,NE,55,8.0,16.0,90,0.00,,,0.12,,2013-02-11 07:41:00,
2013-02-11 07:52:00,27.0,23.0,-100.00,ENE,70,8.0,12.0,89,0.00,,,0.12,,2013-02-11 07:52:00,
2013-02-11 08:01:00,27.0,23.0,-100.00,NE,55,9.0,16.0,89,0.00,,,0.12,,2013-02-11 08:01:00,
2013-02-11 08:11:00,27.0,23.0,-100.00,NE,50,7.0,13.0,89,0.00,,,0.12,,2013-02-11 08:11:00,
2013-02-11 08:21:00,27.0,23.0,-100.00,ENE,65,9.0,12.0,89,0.00,,,0.12,,2013-02-11 08:21:00,
2013-02-11 08:31:00,26.0,23.0,-100.00,NE,50,10.0,16.0,89,0.00,,,0.12,,2013-02-11 08:31:00,
2013-02-11 08:42:00,26.0,23.0,-100.00,ENE,60,9.0,16.0,88,0.00,,,0.12,,2013-02-11 08:42:00,
2013-02-11 08:52:00,26.0,23.0,-100.00,NE,50,11.0,18.0,88,0.00,,,0.12,,2013-02-11 08:52:00,
2013-02-11 09:01:00,26.0,23.0,-100.00,NE,50,11.0,16.0,88,0.00,,,0.12,,2013-02-11 09:01:00,
2013-02-11 09:12:00,26.0,23.0,-100.00,NE,40,9.0,20.0,88,0.00,,,0.12,,2013-02-11 09:12:00,
2013-02-11 09:21:00,26.0,23.0,-100.00,NE,35,9.0,19.0,88,0.00,,,0.12,,2013-02-11 09:21:00,
2013-02-11 09:32:00,26.0,23.0,-100.00,NE,55,9.0,17.0,88,0.00,,,0.12,,2013-02-11 09:32:00,
2013-02-11 09:41:00,26.0,23.0,-100.00,NE,50,9.0,18.0,88,0.00,,,0.12,,2013-02-11 09:41:00,
2013-02-11 09:51:00,25.0,21.0,-100.00,NE,40,12.0,19.0,88,0.00,,,0.12,,2013-02-11 09:51:00,
2013-02-11 10:01:00,25.0,21.0,-100.00,NE,45,10.0,20.0,87,0.00,,,0.12,,2013-02-11 10:01:00,
2013-02-11 10:11:00,25.0,21.0,-100.00,NE,40,16.0,19.0,86,0.00,,,0.12,,2013-02-11 10:11:00,
2013-02-11 10:21:00,25.0,21.0,-100.00,NE,50,12.0,21.0,86,0.00,,,0.12,,2013-02-11 10:21:00,
2013-02-11 10:31:00,25.0,21.0,-100.00,NE,50,11.0,21.0,86,0.00,,,0.12,,2013-02-11 10:31:00,
2013-02-11 10:42:00,24.0,21.0,-100.00,NE,45,13.0,17.0,86,0.00,,,0.12,,2013-02-11 10:42:00,
2013-02-11 10:51:00,24.0,21.0,-100.00,NE,50,12.0,20.0,86,0.00,,,0.12,,2013-02-11 10:51:00,
2013-02-11 11:01:00,24.0,21.0,-100.00,NE,40,14.0,17.0,85,0.00,,,0.12,,2013-02-11 11:01:00,
2013-02-11 11:11:00,24.0,19.0,-100.00,NE,45,9.0,17.0,85,0.00,,,0.12,,2013-02-11 11:11:00,
2013-02-11 11:22:00,24.0,19.0,-100.00,NE,45,13.0,20.0,85,0.00,,,0.12,,2013-02-11 11:22:00,
2013-02-11 11:32:00,24.0,19.0,-100.00,ENE,60,9.0,17.0,84,0.00,,,0.12,,2013-02-11 11:32:00,
2013-02-11 11:42:00,24.0,19.0,-100.00,NE,35,11.0,17.0,84,0.00,,,0.12,,2013-02-11 11:42:00,
2013-02-11 11:52:00,24.0,19.0,-100.00,NE,45,11.0,14.0,84,0.00,,,0.12,,2013-02-11 11:52:00,
2013-02-11 12:03:00,24.0,19.0,-100.00,NE,40,9.0,15.0,84,0.00,,,0.12,,2013-02-11 12:03:00,
2013-02-11 12:12:00,23.0,19.0,-100.00,NE,50,11.0,18.0,84,0.00,,,0.12,,2013-02-11 12:12:00,
2013-02-11 12:22:00,23.0,19.0,-100.00,NE,50,11.0,16.0,84,0.00,,,0.12,,2013-02-11 12:22:00,
2013-02-11 12:32:00,23.0,19.0,-100.00,NE,40,12.0,18.0,84,0.00,,,0.12,,2013-02-11 12:32:00,
2013-02-11 12:42:00,23.0,19.0,-100.00,NE,35,11.0,17.0,84,0.00,,,0.12,,2013-02-11 12:42:00,
2013-02-11 12:52:00,23.0,19.0,-100.00,NE,35,11.0,17.0,84,0.00,,,0.12,,2013-02-11 12:52:00,
2013-02-11 13:02:00,23.0,19.0,-100.00,NNE,25,10.0,17.0,84,0.00,,,0.12,,2013-02-11 13:02:00,
2013-02-11 13:11:00,22.0,18.0,-100.00,NE,50,9.0,17.0,84,0.00,,,0.12,,2013-02-11 13:11:00,
2013-02-11 13:22:00,22.0,18.0,-100.00,NE,35,11.0,21.0,83,0.00,,,0.12,,2013-02-11 13:22:00,
2013-02-11 13:32:00,22.0,18.0,-100.00,NNE,25,11.0,17.0,83,0.00,,,0.12,,2013-02-11 13:32:00,
2013-02-11 13:42:00,22.0,18.0,-100.00,NE,45,12.0,18.0,83,0.00,,,0.12,,2013-02-11 13:42:00,
2013-02-11 13:52:00,22.0,18.0,-100.00,NE,35,9.0,18.0,82,0.00,,,0.12,,2013-02-11 13:52:00,
2013-02-11 14:02:00,22.0,18.0,-100.00,NE,40,11.0,20.0,82,0.00,,,0.12,,2013-02-11 14:02:00,
2013-02-11 14:11:00,21.0,18.0,-100.00,NE,35,9.0,17.0,83,0.00,,,0.12,,2013-02-11 14:11:00,
2013-02-11 14:21:00,21.0,18.0,-100.00,NE,40,8.0,20.0,83,0.00,,,0.12,,2013-02-11 14:21:00,
2013-02-11 14:32:00,21.0,18.0,-100.00,NE,35,7.0,20.0,83,0.00,,,0.12,,2013-02-11 14:32:00,
2013-02-11 14:42:00,21.0,18.0,-100.00,NE,40,9.0,19.0,83,0.00,,,0.12,,2013-02-11 14:42:00,
2013-02-11 14:52:00,22.0,18.0,-100.00,NE,35,12.0,18.0,82,0.00,,,0.12,,2013-02-11 14:52:00,
2013-02-11 15:02:00,22.0,18.0,-100.00,NNE,20,11.0,17.0,81,0.00,,,0.12,,2013-02-11 15:02:00,
2013-02-11 15:11:00,21.0,16.0,-100.00,NE,45,12.0,17.0,80,0.00,,,0.12,,2013-02-11 15:11:00,
2013-02-11 15:22:00,22.0,16.0,-100.00,NE,45,11.0,20.0,79,0.00,,,0.12,,2013-02-11 15:22:00,
2013-02-11 15:32:00,21.0,16.0,-100.00,NE,45,11.0,19.0,78,0.00,,,0.12,,2013-02-11 15:32:00,
2013-02-11 15:42:00,21.0,16.0,-100.00,NNE,30,12.0,19.0,78,0.00,,,0.12,,2013-02-11 15:42:00,
2013-02-11 15:52:00,21.0,16.0,-100.00,NE,35,9.0,17.0,78,0.00,,,0.12,,2013-02-11 15:52:00,
2013-02-11 16:02:00,21.0,16.0,-100.00,NE,35,9.0,22.0,78,0.00,,,0.12,,2013-02-11 16:02:00,
2013-02-11 16:11:00,21.0,16.0,-100.00,NNE,30,10.0,18.0,77,0.00,,,0.12,,2013-02-11 16:11:00,
2013-02-11 16:22:00,21.0,14.0,-100.00,NE,40,10.0,26.0,76,0.00,,,0.12,,2013-02-11 16:22:00,
2013-02-11 16:32:00,22.0,16.0,-100.00,North,5,9.0,19.0,75,0.00,,,0.12,,2013-02-11 16:32:00,
2013-02-11 16:42:00,22.0,14.0,-100.00,NNE,30,15.0,22.0,74,0.00,,,0.12,,2013-02-11 16:42:00,
2013-02-11 16:52:00,22.0,16.0,-100.00,NE,35,9.0,21.0,74,0.00,,,0.12,,2013-02-11 16:52:00,
2013-02-11 17:01:00,22.0,14.0,-100.00,NE,35,12.0,21.0,73,0.00,,,0.12,,2013-02-11 17:01:00,
2013-02-11 17:11:00,22.0,14.0,-100.00,NE,45,13.0,20.0,72,0.00,,,0.12,,2013-02-11 17:11:00,
2013-02-11 17:21:00,22.0,14.0,-100.00,NE,45,13.0,21.0,73,0.00,,,0.12,,2013-02-11 17:21:00,
2013-02-11 17:32:00,22.0,14.0,-100.00,NNE,20,12.0,22.0,72,0.00,,,0.12,,2013-02-11 17:32:00,
2013-02-11 17:42:00,22.0,14.0,-100.00,NNE,20,14.0,20.0,73,0.00,,,0.12,,2013-02-11 17:42:00,
2013-02-11 17:52:00,22.0,14.0,-100.00,North,5,11.0,20.0,72,0.00,,,0.12,,2013-02-11 17:52:00,
2013-02-11 18:02:00,22.0,14.0,-100.00,NNE,20,13.0,21.0,71,0.00,,,0.12,,2013-02-11 18:02:00,
2013-02-11 18:11:00,22.0,14.0,-100.00,North,0,9.0,23.0,72,0.00,,,0.12,,2013-02-11 18:11:00,
2013-02-11 18:21:00,22.0,14.0,-100.00,NE,35,11.0,22.0,73,0.00,,,0.12,,2013-02-11 18:21:00,
2013-02-11 18:32:00,22.0,14.0,-100.00,North,5,12.0,20.0,73,0.00,,,0.12,,2013-02-11 18:32:00,
2013-02-11 18:42:00,21.0,14.0,-100.00,North,5,16.0,24.0,72,0.00,,,0.12,,2013-02-11 18:42:00,
2013-02-11 18:52:00,22.0,14.0,-100.00,North,0,12.0,23.0,72,0.00,,,0.12,,2013-02-11 18:52:00,
2013-02-11 19:02:00,22.0,14.0,-100.00,North,5,12.0,21.0,72,0.00,,,0.12,,2013-02-11 19:02:00,
2013-02-11 19:11:00,22.0,14.0,-100.00,North,5,14.0,21.0,72,0.00,,,0.12,,2013-02-11 19:11:00,
2013-02-11 19:21:00,22.0,14.0,-100.00,North,0,11.0,24.0,72,0.00,,,0.12,,2013-02-11 19:21:00,
2013-02-11 19:32:00,22.0,14.0,-100.00,North,10,15.0,22.0,71,0.00,,,0.12,,2013-02-11 19:32:00,
2013-02-11 19:41:00,22.0,14.0,-100.00,North,5,14.0,24.0,71,0.00,,,0.12,,2013-02-11 19:41:00,
2013-02-11 19:51:00,22.0,14.0,-100.00,North,10,12.0,24.0,71,0.00,,,0.12,,2013-02-11 19:51:00,
2013-02-11 20:01:00,22.0,14.0,-100.00,NNE,25,12.0,19.0,70,0.00,,,0.12,,2013-02-11 20:01:00,
2013-02-11 20:11:00,23.0,14.0,-100.00,NNE,15,11.0,22.0,70,0.00,,,0.12,,2013-02-11 20:11:00,
2013-02-11 20:21:00,23.0,14.0,-100.00,North,355,11.0,19.0,70,0.00,,,0.12,,2013-02-11 20:21:00,
2013-02-11 20:32:00,22.0,14.0,-100.00,NNE,20,17.0,23.0,70,0.00,,,0.12,,2013-02-11 20:32:00,
2013-02-11 20:42:00,22.0,14.0,-100.00,North,10,11.0,24.0,70,0.00,,,0.12,,2013-02-11 20:42:00,
2013-02-11 20:52:00,22.0,14.0,-100.00,North,0,15.0,21.0,71,0.00,,,0.12,,2013-02-11 20:52:00,
2013-02-11 21:02:00,22.0,14.0,-100.00,North,0,15.0,23.0,71,0.00,,,0.12,,2013-02-11 21:02:00,
2013-02-11 21:11:00,22.0,14.0,-100.00,North,5,13.0,21.0,72,0.00,,,0.12,,2013-02-11 21:11:00,
2013-02-11 21:21:00,22.0,14.0,-100.00,North,0,9.0,17.0,73,0.00,,,0.10,,2013-02-11 21:21:00,
2013-02-11 21:32:00,22.0,14.0,-100.00,North,5,10.0,19.0,73,0.00,,,0.10,,2013-02-11 21:32:00,
2013-02-11 21:42:00,22.0,14.0,-100.00,North,10,13.0,21.0,73,0.00,,,0.09,,2013-02-11 21:42:00,
2013-02-11 21:52:00,22.0,14.0,-100.00,North,0,9.0,19.0,73,0.00,,,0.09,,2013-02-11 21:52:00,
2013-02-11 22:02:00,22.0,14.0,-100.00,NNE,15,11.0,19.0,73,0.00,,,0.08,,2013-02-11 22:02:00,
2013-02-11 22:11:00,22.0,14.0,-100.00,North,0,8.0,19.0,73,0.00,,,0.08,,2013-02-11 22:11:00,
2013-02-11 22:21:00,22.0,14.0,-100.00,North,5,7.0,19.0,73,0.00,,,0.07,,2013-02-11 22:21:00,
2013-02-11 22:32:00,22.0,16.0,-100.00,North,0,11.0,17.0,73,0.00,,,0.07,,2013-02-11 22:32:00,
2013-02-11 22:42:00,22.0,14.0,-100.00,North,0,12.0,20.0,73,0.00,,,0.06,,2013-02-11 22:42:00,
2013-02-11 22:52:00,21.0,14.0,-100.00,North,5,12.0,21.0,73,0.00,,,0.05,,2013-02-11 22:52:00,
2013-02-11 23:02:00,21.0,14.0,-100.00,NNE,25,7.0,20.0,73,0.00,,,0.04,,2013-02-11 23:02:00,
2013-02-11 23:11:00,21.0,14.0,-100.00,NNE,15,9.0,20.0,73,0.00,,,0.04,,2013-02-11 23:11:00,
2013-02-11 23:21:00,21.0,14.0,-100.00,NNE,15,8.0,13.0,75,0.00,,,0.01,,2013-02-11 23:21:00,
2013-02-11 23:32:00,21.0,14.0,-100.00,North,0,11.0,18.0,75,0.00,,,0.01,,2013-02-11 23:32:00,
2013-02-11 23:41:00,21.0,14.0,-100.00,North,0,9.0,17.0,75,0.00,,,0.01,,2013-02-11 23:41:00,
2013-02-11 23:52:00,21.0,14.0,-100.00,NNE,25,12.0,20.0,75,0.00,,,0.00,,2013-02-11 23:52:00,